Weather in Krasnoselets

Russia / Volgograd Oblast     49°39′44″N   45°44′19″E
temp.,
°C
wind,
m/s
gust,
m/s
humid.,
%
clouds,
%
prec.,
mm/h
press.,
hPa
HPBL,
m
7 march, sun
sun700:00−4n4693100 0.1 1013344
03:00−4nw4795100 0.6 1015472
06:00−7nw7128795 0.2 1018415
09:00−6wnw7117947 0.2 1019502
12:00−3wnw68660 0.0 1019937
15:00−2wsw7106519 0.0 10181369
18:00−2sw61278100 0.0 1015569
21:00−2sw81574100 0.0 1014809
8 march, mon
mon800:00−2sw91674100 0.0 1011859
03:00−3sw9177873 0.0 1010837
06:00−3sw8167912 0.0 1009724
09:00−1wsw9147426 0.0 1010884
12:00+1wsw9137286 0.0 10101100
15:00+2wsw9137093 0.1 10091414
18:00+1sw51279100 0.0 1008530
21:000sw61385100 0.0 1009441
9 march, tue
tue900:000sw7139191 0.0 1009473
03:00−1wsw599695 0.4 1009427
06:00−2nnw4697100 1.5 1009279
09:00−3nnw6894100 3.0 1010543
12:00−2nw567393 0.3 1012917
15:00−2wnw577265 0.3 10131009
18:00−4nw368364 0.0 1014269
21:00−5nw468182 0.0 1015491
10 march, wed
wed1000:00−7nw588397 0.0 1016437
03:00−9nw578449 0.0 1018385
06:00−10nw59810 0.0 1019444
09:00−10nw58760 0.0 1021542
12:00−9nw677127 0.0 1022791
15:00−9nw686652 0.0 10231004
18:00−11nw687139 0.0 1024788
21:00−13nnw587523 0.0 1026593
11 march, thu
thu1100:00−15nnw57760 0.0 1026486
03:00−16nnw57770 0.0 1028409
06:00−17n57760 0.0 1029412
09:00−16n35670 0.0 1031478
12:00−13n34560 0.0 1031603
15:00−11n44520 0.0 1031704
18:00−12nnw34630 0.0 1032429
21:00−13nw23700 0.0 1033156